Regional Weather Roundup
Issued by NWS Sioux Falls, SD

Home | Current Version | Previous Version | Text Only | Print | Product List | Glossary On
Versions: 1 2 3 4 5 6 7 8 9 10 11 12 13 14 15 16 17 18 19 20 21 22 23 24 25 26 27 28 29 30 31 32 33 34 35 36 37 38 39 40 41 42 43 44 45 46 47 48 49 50
000
ASUS43 KFSD 230610
RWRFSD

WEATHER ROUNDUP FOR SE SOUTH DAKOTA/SW MINNESOTA/NW IOWA
NATIONAL WEATHER SERVICE SIOUX FALLS SD
1200 AM CST MON JAN 23 2017

NOTE: "FAIR" INDICATES FEW OR NO CLOUDS BELOW 12,000 FEET WITH NO
SIGNIFICANT WEATHER AND OR OBSTRUCTIONS TO VISIBILITY.


SDZ038>040-050-052>070-230700-
SOUTHEAST SOUTH DAKOTA

CITY           SKY/WX    TMP DP  RH WIND       PRES   REMARKS
BROOKINGS      MIX PCPN  30  28  92 W9        29.83R WCI  22
CHAMBERLAIN    CLOUDY    31  28  88 W6        29.90R WCI  26
6HR MIN TEMP:  31; 6HR MAX TEMP:  31;

HURON          CLOUDY    31  28  89 NW9       29.88S WCI  23
6HR MIN TEMP:  29; 6HR MAX TEMP:  31;

MADISON        CLOUDY    28  28 100 NW8         N/A  WCI  20
MITCHELL       CLOUDY    31  27  85 W12       29.91R WCI  22
6HR MIN TEMP:  31; 6HR MAX TEMP:  32;

SIOUX FALLS    CLOUDY    31  30  96 NW6       29.87R WCI  25
6HR MIN TEMP:  30; 6HR MAX TEMP:  31; 6HR PCP: TRACE;

WINNER         CLOUDY    27  24  89 CALM      29.89S
YANKTON        CLOUDY    32  27  80 W7        29.90R WCI  26
$$

MNZ071-072-080-081-089-090-097-098-230700-
SOUTHWEST MINNESOTA

CITY           SKY/WX    TMP DP  RH WIND       PRES   REMARKS
FAIRMONT       CLOUDY    31  29  92 NW12      29.83S WCI  22
JACKSON        CLOUDY    30  28  93 NW8       29.83S FOG     WCI  23
LUVERNE        CLOUDY    32  27  80 NW8       29.86R WCI  25
MARSHALL       CLOUDY    33  29  85 NW10      29.83S WCI  25
6HR MIN TEMP:  31; 6HR MAX TEMP:  33;

MONTEVIDEO     CLOUDY    34  34 100 NW5       29.84R WCI  30
PIPESTONE      CLOUDY    32  28  86 N9        29.82S WCI  24
REDWOOD FALLS  CLOUDY    33  29  85 W7        29.82S WCI  27
TRACY          CLOUDY    33  31  92 W3        29.83S
WINDOM         CLOUDY    32  30  93 W12       29.82S WCI  23
WORTHINGTON    CLOUDY    30  28  92 NW12      29.83F WCI  20
$$

IAZ001>003-012>014-020>022-031-032-NEZ013-014-SDZ071-230700-
NORTHWEST IOWA

CITY           SKY/WX    TMP DP  RH WIND       PRES   REMARKS
CHEROKEE       CLOUDY    31  30  95 NW8       29.86S WCI  24
DENISON        CLOUDY    32  28  86 NW13      29.85S WCI  22
ESTHERVILLE    CLOUDY    30  30 100 NW12      29.82S WCI  20
LE MARS        CLOUDY    32  28  86 NW12G17   29.89S WCI  23
ORANGE CITY    CLOUDY    30  27  86 NW8       29.86S WCI  23
SHELDON        CLOUDY    30  32 100 NW12G17   29.84S WCI  21
SIOUX CITY     CLOUDY    33  28  81 NW9       29.89F WCI  25
6HR MIN TEMP:  30; 6HR MAX TEMP:  35;

SPENCER          N/A    N/A N/A N/A MISG      29.84S
STORM LAKE     CLOUDY    30  28  93 NW15      29.84S WCI  19
$$

ABBREVIATIONS USED IN REMARKS
   TC - TEMPERATURE IN CELSIUS
  WCI - WIND CHILL INDEX
   HX - HEAT INDEX
  VSB - VISIBILITY




USA.gov is the U.S. government's official web portal to all federal, state and local government web resources and services.